Flag for Canada Weather past 2 weeks in Glace Bay, Nova Scotia, Canada

Now
59 °F

Passing clouds.


Feels Like: 57 °F
Forecast: 59 / 73 °F
Wind: 13 mph from Southwest

Location: Sydney

Current Time: Aug 31, 2014 at 4:01:31 AM

Latest Report: Aug 31, 2014 at 3:00 AM


Visibility: 15 mi

Pressure: 30.10 "Hg

Humidity: 82%

Dew point: 54 °F

Location of Glace BayLocation

Historic Weather in Glace Bay — Graph

°F

Glace Bay temperature yesterday

Maximum temperature yesterday: 70 °F (at 3:00 PM)
Minimum temperature yesterday: 41 °F (at 6:00 AM)
Average temperature yesterday: 57 °F

Past Weeks' High & Low Weather Summary

 TemperatureHumidityPressure
High84 °F (Aug 26, 2:00 PM)100% (Aug 16, 6:00 AM)30.27 "Hg (Aug 16, 6:00 AM)
Low41 °F (Aug 30, 6:00 AM)29% (Aug 30, 3:00 PM)29.51 "Hg (Aug 19, 4:00 AM)
Average64 °F81%29.93 "Hg
* Reported Aug 16 2:00 AM — Aug 31 2:00 AM, Glace Bay, Weather by CustomWeather, © 2014

Note: Actual official high and low records may vary slightly from our data, if they occured in-between our weather recording intervals... More about our weather records

Advertising

Glace Bay weather history for previous 24 hours

 ConditionsComfort  
Time TempWeatherWind HumidityBarometerVisibility
2:00 AM
Aug 31
59 °FPassing clouds.13 mph77%30.11 "Hg15 mi
1:00 AM57 °FPassing clouds.13 mph77%30.11 "Hg15 mi
12:00 AM57 °FPartly cloudy.12 mph77%30.12 "Hg15 mi
11:00 PM
Aug 30
57 °FPassing clouds.18 mph77%30.12 "Hg15 mi
10:00 PM57 °FClear.13 mph77%30.13 "Hg15 mi
9:00 PM57 °FPassing clouds.9 mph82%30.14 "Hg15 mi
8:00 PM59 °FPartly sunny.12 mph77%30.15 "Hg15 mi
7:00 PM63 °FPartly sunny.12 mph59%30.15 "Hg15 mi
6:00 PM66 °FScattered clouds.13 mph56%30.16 "Hg15 mi
5:00 PM70 °FPartly sunny.12 mph43%30.16 "Hg15 mi
4:00 PM70 °FPartly sunny.15 mph31%30.17 "Hg15 mi
3:00 PM70 °FPartly sunny.12 mph29%30.19 "Hg15 mi
2:00 PM68 °FPartly sunny.9 mph40%30.21 "Hg15 mi
1:00 PM68 °FPartly sunny.14 mph40%30.22 "Hg15 mi
12:00 PM66 °FPartly sunny.14 mph46%30.24 "Hg15 mi
11:00 AM63 °FPartly sunny.10 mph52%30.25 "Hg15 mi
10:00 AM61 °FScattered clouds.9 mph55%30.27 "Hg15 mi
9:00 AM57 °FPassing clouds.9 mph72%30.26 "Hg15 mi
8:00 AM50 °FPassing clouds.7 mph82%30.26 "Hg15 mi
7:00 AM43 °FPassing clouds.9 mph93%30.25 "Hg15 mi
6:00 AM41 °FPassing clouds.9 mph93%30.23 "Hg15 mi
5:00 AM43 °FClear.8 mph93%30.22 "Hg15 mi
4:00 AM45 °FPassing clouds.10 mph93%30.20 "Hg15 mi
Weather by CustomWeather, © 2014

See weather overviewHow to use our weather pages